Location: *
(58.4167°N, 22.5000°E)
Time: 14:21:33
(UTC+00:00)

Cosmos 1486 Rocket - Pass Details

Date: 22 September 2019
Orbit: 758 x 784 km, 74.1° (Epoch: 19 October)

Event Time Altitude Azimuth Distance (km) Brightness Sun altitude
Rises 19:31:10 0° 329° (NNW) 3,245 8.6 -22.4°
Reaches altitude 10° 19:33:33 10° 330° (NNW) 2,319 7.5 -22.6°
Maximum altitude 19:38:50 84° 58° (ENE) 784 3.9 -23.1°
Enters shadow 19:39:47 61° 137° (SE) 879 3.9 -23.2°
